Location: Newark
(34.1333°N, 7.9667°W)
Time: 02:31:38
(UTC+00:00)

Explorer 11/Cluster Stage 4 - Visible Passes

Search period start: 04 December 2021 00:00
Search period end: 14 December 2021 00:00
Orbit: 467 x 1255 km, 28.8° (Epoch: 03 December)

Date Brightness Start Highest point End Pass type
(mag) Time Alt. Az. Time Alt. Az. Time Alt. Az.
04 Dec 9.2 03:29:28 23° ESE 03:29:28 23° ESE 03:32:20 10° E visible
04 Dec 7.7 05:11:33 44° SW 05:13:42 56° S 05:21:42 10° ESE visible
05 Dec 9.5 03:18:51 18° ESE 03:18:51 18° ESE 03:20:43 10° E visible
05 Dec 7.6 05:00:57 49° SW 05:02:10 54° S 05:10:03 10° ESE visible
05 Dec 8.6 06:44:11 10° W 06:51:05 34° SSW 06:58:18 10° SE visible
06 Dec 9.7 03:08:15 13° ESE 03:08:15 13° ESE 03:09:05 10° E visible
06 Dec 7.6 04:50:21 51° SSW 04:50:39 51° S 04:58:23 10° ESE visible
06 Dec 8.6 06:32:56 10° W 06:39:30 31° SSW 06:46:27 10° SE visible
07 Dec 7.8 04:39:46 47° S 04:39:46 47° S 04:46:41 10° ESE visible
07 Dec 8.7 06:21:52 10° WSW 06:27:55 28° SSW 06:34:33 10° SSE visible
08 Dec 8.1 04:29:11 39° SSE 04:29:11 39° SSE 04:34:56 10° ESE visible
08 Dec 8.8 06:11:17 12° WSW 06:16:22 24° SSW 06:22:33 10° SSE visible
09 Dec 8.5 04:18:38 31° SSE 04:18:38 31° SSE 04:23:10 10° SE visible
09 Dec 8.9 06:00:45 13° WSW 06:04:49 21° SSW 06:10:27 10° SSE visible
10 Dec 8.9 04:08:06 24° SSE 04:08:06 24° SSE 04:11:21 10° SE visible
10 Dec 8.9 05:50:13 14° SW 05:53:18 18° SSW 05:58:11 10° SSE visible
11 Dec 9.2 03:57:36 17° SE 03:57:36 17° SE 03:59:30 10° SE visible
11 Dec 8.9 05:39:43 13° SW 05:41:48 15° SSW 05:45:44 10° S visible
12 Dec 9.6 03:47:07 12° SE 03:47:07 12° SE 03:47:36 10° SE visible
12 Dec 9.1 05:29:13 11° SW 05:30:20 12° SSW 05:32:49 10° S visible
